Regional Weather Roundup
Issued by NWS Goodland, KS

Home | Current Version | Previous Version | Graphics & Text | Print | Product List | Glossary On
Versions: 1 2 3 4 5 6 7 8 9 10 11 12 13 14 15 16 17 18 19 20 21 22 23 24 25 26 27 28 29 30 31 32 33 34 35 36 37 38 39 40 41 42 43 44 45 46 47 48 49 50
468
ASUS43 KGLD 231008
RWRGLD

GOODLAND FORECAST AREA HOURLY WEATHER ROUNDUP
NATIONAL WEATHER SERVICE GOODLAND KS
400 AM MDT THU MAR 23 2017

...OFFICIAL OBSERVATIONS...

CITY           SKY/WX    TMP DP  RH WIND       PRES   REMARKS
GOODLAND KS    CLEAR     44  43  96 S22       29.75F
HILL CITY KS   CLOUDY    50  45  83 SE13      29.86F
IMPERIAL NEB   PTCLDY    41  38  89 SE9       29.76F
MCCOOK NEB     CLOUDY    43  37  79 SE8       29.81F
AKRON CO       CLOUDY    50  42  74 S15       29.69F
BURLINGTON CO  CLOUDY    47  44  90 S22G30    29.75F
LIMON CO       CLOUDY    38  38 100 SE5       29.77F FOG
$$

...UNOFFICIAL OBSERVATIONS...

CITY           SKY/WX    TMP DP  RH WIND       PRES   REMARKS
LENORA KS        N/A     48  32  54 SE12        N/A
NORTON KS      CLOUDY    48  37  66 SE13G21   29.82
SHARON SPRINGS   N/A     44  42  91 SE12        N/A
TRENTON NEB      N/A     42  32  68 S6          N/A
YUMA CO        FAIR      46  43  87 S15G21    29.69F
$$




USA.gov is the U.S. government's official web portal to all federal, state and local government web resources and services.